Location: Pine Mountain Observatory
(43.7910°N, 120.9377°W)
Time: 00:58:18
(UTC-07:00)

Vanguard 3 - All Passes

Search period start: 24 May 2019 00:00
Search period end: 03 June 2019 00:00
Orbit: 508 x 3263 km, 33.3° (Epoch: 23 May)

Date Brightness Start Highest point End Pass type
(mag) Time Alt. Az. Time Alt. Az. Time Alt. Az.
24 May - 00:00:21 10° WSW 00:08:33 49° S 00:22:39 10° ESE visible
24 May - 02:11:36 10° W 02:22:08 41° SSW 02:38:12 10° SE visible
24 May - 04:25:38 10° WSW 04:36:16 23° SSW 04:49:25 10° S visible
24 May - 20:39:07 10° S 20:43:13 20° SE 20:48:56 10° ESE daylight
24 May - 22:47:29 10° WSW 22:54:10 43° SSE 23:05:39 10° ESE visible
25 May - 00:57:54 10° WSW 01:06:56 45° S 01:21:49 10° ESE visible
25 May - 03:10:12 10° W 03:20:47 30° SSW 03:35:25 10° SSE visible
25 May - 05:29:41 10° WSW 05:34:39 12° SW 05:39:59 10° SSW daylight
25 May - 21:35:02 10° SW 21:40:20 32° SSE 21:48:51 10° E visible
25 May - 23:44:42 10° WSW 23:52:10 46° S 00:05:03 10° ESE visible
26 May - 01:55:54 10° W 02:05:27 37° SSW 02:20:05 10° SE visible
26 May - 04:10:24 10° WSW 04:19:20 19° SW 04:30:17 10° S visible
26 May - 20:23:16 10° SSW 20:27:03 20° SSE 20:32:13 10° ESE daylight
26 May - 22:31:51 10° WSW 22:37:57 41° S 22:48:18 10° ESE visible
27 May - 00:42:17 10° WSW 00:50:27 41° S 01:03:58 10° SE visible
27 May - 02:54:43 10° WSW 03:04:01 26° SSW 03:16:51 10° SSE visible
27 May - 21:19:23 10° SW 21:24:14 31° SSE 21:31:50 10° ESE visible
27 May - 23:29:06 10° WSW 23:35:54 42° S 23:47:29 10° ESE visible
28 May - 01:40:21 10° WSW 01:48:53 31° SSW 02:01:52 10° SE visible
28 May - 03:55:50 10° WSW 04:02:31 15° SW 04:10:29 10° S visible
28 May - 20:07:29 10° SSW 20:10:57 20° SSE 20:15:37 10° ESE daylight
28 May - 22:16:17 10° WSW 22:21:49 38° S 22:31:03 10° ESE visible
29 May - 00:26:44 10° WSW 00:34:06 36° SSW 00:46:04 10° SE visible
29 May - 02:39:30 10° WSW 02:47:22 21° SSW 02:57:57 10° SSE visible
29 May - 21:03:47 10° SW 21:08:11 30° SSE 21:14:57 10° ESE visible
29 May - 23:13:35 10° WSW 23:19:44 37° S 23:29:57 10° ESE visible
30 May - 01:24:58 10° WSW 01:32:27 26° SSW 01:43:30 10° SSE visible
30 May - 03:43:20 10° SW 03:45:52 11° SW 03:48:34 10° SSW visible
30 May - 19:51:44 10° SSW 19:54:56 19° SSE 19:59:07 10° ESE daylight
30 May - 22:00:46 10° WSW 22:05:47 35° S 22:13:53 10° ESE visible
31 May - 00:11:18 10° WSW 00:17:50 30° SSW 00:28:09 10° SE visible
31 May - 02:24:47 10° WSW 02:30:53 16° SSW 02:38:38 10° S visible
31 May - 20:48:12 10° SW 20:52:14 28° SSE 20:58:09 10° ESE daylight
31 May - 22:58:09 10° WSW 23:03:39 32° S 23:12:27 10° SE visible
01 Jun - 01:09:52 10° WSW 01:16:07 21° SSW 01:24:58 10° SSE visible
01 Jun - 19:36:01 10° SSW 19:38:59 19° SSE 19:42:43 10° ESE daylight
01 Jun - 21:45:18 10° WSW 21:49:49 31° S 21:56:49 10° ESE visible
01 Jun - 23:56:02 10° WSW 00:01:42 25° SSW 00:10:11 10° SSE visible
02 Jun - 02:11:19 10° SW 02:14:30 11° SSW 02:18:07 10° SSW night (unlit)
02 Jun - 18:25:08 10° SSE 18:25:51 10° SSE 18:26:36 10° SE daylight
02 Jun - 20:32:40 10° SW 20:36:20 26° S 20:41:28 10° ESE daylight
02 Jun - 22:42:48 10° WSW 22:47:38 27° S 22:54:59 10° SE visible
